"Pseudo-MPEC" for A11Flg9

Created 2026 Aug 11 13:35:05 UT using Find_Orb

Click here for an explanation of pseudo-MPECs

 
 Astrometry: 
     A11Flg9*0C2026 08 03.87956713 29 03.209+18 37 10.63   ~8415 19.27wVNEOCPR17
     A11Flg9 0C2026 08 03.89370313 29 01.226+18 36 45.00   ~8415 18.94wVNEOCPR17
     A11Flg9 0C2026 08 03.90785013 28 59.304+18 36 12.67   ~8415 19.34wVNEOCPR17
     A11Flg9 0C2026 08 03.92200413 28 57.389+18 35 36.71   ~8415 18.95wVNEOCPR17

Station data:
(R17) ATLAS-TDO  (N28.298778 W16.510310)  Canary Islands (Spain).  Observers
   L. Denneau, R. Siverd, J. Tonry, H. Weiland, J. Licandro, M. Alarcon.
   Measurers L. Denneau, N. Erasmus, A. Fitzsimmons, J. Robinson, R. Siverd,
   J. Tonry, H. Weiland, J. Licandro, M. Alarcon. 0.56-m f/2.2 Astrograph +
   CMOS.

Orbital elements:  A11Flg9
   Perihelion 2026 Dec 1.848250 TT = 20:21:28.8 (JD 2461376.348250)
Epoch 2026 Aug  4.0 TT = JDT 2461256.5   Earth MOID: 0.0059      AutoNEOCP
M 239.255680467                     (J2000 ecliptic)
n   1.007476701    Peri.  271.399298
a   0.985475976    Node   162.688787
e   0.03401548     Incl.    1.244064
P   0.978/357.322d H   22.44    G   0.15   q 0.951954528  Q 1.018997424
From 4 observations 2026 Aug. 3 (61.1 min); mean residual 1".77
Residuals in arcseconds: 
260803 R17  .68-  2.5-    260803 R17  .84+  1.9+    
260803 R17  .57+  2.8+    260803 R17  .76-  2.2-    

Ephemerides (geocentric):
Date (UTC) HH   RA             Dec           delta  r     elong  mag
---- --------  ------------   ------------  ------ ------ -----  ---
2026 08 11 14  13 17 50.040   +14 44 49.72  .02544 0.9996  56.3 19??
2026 08 11 15  13 17 45.428   +14 43 29.88  .02543 0.9996  56.2 19??
2026 08 11 16  13 17 40.806   +14 42 10.00  .02542 0.9996  56.2 19??
2026 08 11 17  13 17 36.174   +14 40 50.07  .02541 0.9995  56.1 19??
2026 08 11 18  13 17 31.532   +14 39 30.11  .02541 0.9995  56.1 19??
2026 08 11 19  13 17 26.879   +14 38 10.10  .02540 0.9995  56.0 19??
2026 08 11 20  13 17 22.217   +14 36 50.06  .02539 0.9995  56.0 19??
2026 08 11 21  13 17 17.544   +14 35 29.97  .02538 0.9994  55.9 19??
2026 08 11 22  13 17 12.861   +14 34 09.85  .02537 0.9994  55.9 19??
2026 08 11 23  13 17 08.168   +14 32 49.68  .02537 0.9994  55.8 19??
2026 08 12 00  13 17 03.465   +14 31 29.47  .02536 0.9994  55.8 19??
2026 08 12 01  13 16 58.752   +14 30 09.23  .02535 0.9994  55.7 19??
2026 08 12 02  13 16 54.028   +14 28 48.94  .02534 0.9993  55.7 19??
2026 08 12 03  13 16 49.295   +14 27 28.62  .02533 0.9993  55.6 19??
2026 08 12 04  13 16 44.551   +14 26 08.25  .02533 0.9993  55.6 19??
2026 08 12 05  13 16 39.796   +14 24 47.84  .02532 0.9993  55.5 19??
2026 08 12 06  13 16 35.032   +14 23 27.40  .02531 0.9992  55.5 19??
2026 08 12 07  13 16 30.257   +14 22 06.92  .02530 0.9992  55.4 19??
2026 08 12 08  13 16 25.471   +14 20 46.39  .02530 0.9992  55.4 19??
2026 08 12 09  13 16 20.676   +14 19 25.83  .02529 0.9992  55.3 19??
2026 08 12 10  13 16 15.870   +14 18 05.23  .02528 0.9992  55.3 19??
2026 08 12 11  13 16 11.053   +14 16 44.59  .02527 0.9991  55.2 19??
2026 08 12 12  13 16 06.226   +14 15 23.91  .02526 0.9991  55.2 19??
2026 08 12 13  13 16 01.389   +14 14 03.19  .02526 0.9991  55.1 19??
2026 08 12 14  13 15 56.541   +14 12 42.44  .02525 0.9991  55.1 19??
2026 08 12 15  13 15 51.683   +14 11 21.64  .02524 0.9990  55.0 19??
2026 08 12 16  13 15 46.815   +14 10 00.81  .02523 0.9990  55.0 19??
2026 08 12 17  13 15 41.935   +14 08 39.93  .02523 0.9990  54.9 19??
2026 08 12 18  13 15 37.046   +14 07 19.02  .02522 0.9990  54.8 19??
2026 08 12 19  13 15 32.145   +14 05 58.08  .02521 0.9990  54.8 19??
2026 08 12 20  13 15 27.234   +14 04 37.09  .02520 0.9989  54.7 19??
2026 08 12 21  13 15 22.313   +14 03 16.07  .02519 0.9989  54.7 19??
2026 08 12 22  13 15 17.381   +14 01 55.00  .02519 0.9989  54.6 19??
2026 08 12 23  13 15 12.438   +14 00 33.90  .02518 0.9989  54.6 19??
2026 08 13 00  13 15 07.485   +13 59 12.77  .02517 0.9989  54.5 19??
2026 08 13 01  13 15 02.521   +13 57 51.59  .02516 0.9988  54.5 19??
2026 08 13 02  13 14 57.546   +13 56 30.38  .02516 0.9988  54.4 19??
2026 08 13 03  13 14 52.560   +13 55 09.13  .02515 0.9988  54.4 19??
2026 08 13 04  13 14 47.564   +13 53 47.84  .02514 0.9988  54.3 19??
2026 08 13 05  13 14 42.557   +13 52 26.52  .02513 0.9987  54.3 19??
2026 08 13 06  13 14 37.539   +13 51 05.16  .02512 0.9987  54.2 19??
2026 08 13 07  13 14 32.510   +13 49 43.76  .02512 0.9987  54.2 19??
2026 08 13 08  13 14 27.471   +13 48 22.33  .02511 0.9987  54.1 19??
2026 08 13 09  13 14 22.420   +13 47 00.86  .02510 0.9987  54.1 19??
2026 08 13 10  13 14 17.359   +13 45 39.35  .02509 0.9986  54.0 19??
2026 08 13 11  13 14 12.286   +13 44 17.81  .02509 0.9986  53.9 19??
2026 08 13 12  13 14 07.203   +13 42 56.23  .02508 0.9986  53.9 19??
2026 08 13 13  13 14 02.109   +13 41 34.61  .02507 0.9986  53.8 19??